Date String (YYYY-MM-DD hh:mm:ss) UTC,Instrument flags,Ambient pressure (hPa),Sample flow (lpm),Bypass flow (lpm),Sample temperature (°C),Ambient temperature (°C),ASC tube jacket temperature (°C),LED temperature (°C),Box temperature (°C),Sample RH (%),Span deviation,Mass concentration (μg/m³),Mass concentration (μg/m³),Mass concentration (μg/m³)
DateTimeUTC,F1_M11,P_M11,Q1_M11,Q2_M11,T1_M11,T2_M11,T3_M11,T4_M11,T5_M11,U1_M11,ZSPAN_M11,X0_M11,X2_M11,X1_M11
2021-09-02 11:00:00,,0824.8,5.00,0.00,29.8,28.8,00.0,38.9,31.6,31.4,0001.3,0017.91,0012.95,0012.18
2021-09-02 11:01:00,,0824.8,5.00,0.00,29.8,28.9,00.0,38.9,31.6,31.3,0001.4,0017.96,0012.98,0012.19
2021-09-02 11:02:00,,0824.8,4.99,0.00,29.9,28.9,00.0,38.9,31.6,31.3,0001.5,0017.95,0012.95,0012.19
2021-09-02 11:03:00,,0824.8,5.00,0.00,29.9,29.0,00.0,38.9,31.7,31.2,0001.7,0018.19,0012.95,0012.19
2021-09-02 11:04:00,,0824.8,5.01,0.00,29.9,29.0,00.0,38.9,31.7,31.1,0001.9,0018.31,0012.96,0012.19
2021-09-02 11:05:00,,0824.8,4.99,0.00,29.9,29.1,00.0,38.9,31.7,31.1,0001.9,0018.22,0012.99,0012.19
2021-09-02 11:06:00,,0824.8,5.00,0.00,30.0,29.1,00.0,38.9,31.7,31.1,0001.8,0017.61,0012.94,0012.16
2021-09-02 11:07:00,,0824.8,5.01,0.00,30.0,29.1,00.0,39.0,31.8,31.0,0001.8,0017.12,0012.88,0012.15
2021-09-02 11:08:00,,0824.8,4.99,0.00,30.0,29.2,00.0,39.0,31.8,31.0,0002.3,0016.81,0012.83,0012.14
2021-09-02 11:09:00,,0824.9,5.01,0.00,30.0,29.2,00.0,39.0,31.8,30.9,0002.4,0016.76,0012.81,0012.12
2021-09-02 11:10:00,,0824.9,5.00,0.00,30.1,29.3,00.0,39.0,31.9,30.8,0002.4,0017.16,0012.79,0012.12
2021-09-02 11:11:00,,0824.9,5.00,0.00,30.0,28.2,00.0,39.0,31.6,30.8,0002.4,0017.28,0012.76,0012.11
2021-09-02 11:12:00,,0824.9,5.00,0.00,29.9,26.6,00.0,39.0,31.2,31.1,0002.2,0017.52,0012.74,0012.09
2021-09-02 11:13:00,,0824.9,4.98,0.00,29.8,26.3,00.0,39.0,31.1,31.4,0002.0,0017.53,0012.77,0012.11
2021-09-02 11:14:00,,0824.9,5.01,0.00,29.7,26.7,00.0,39.0,31.1,31.6,0002.0,0017.15,0012.75,0012.10
2021-09-02 11:15:00,,0824.9,5.00,0.00,29.6,27.1,00.0,38.9,31.1,31.6,0001.9,0017.07,0012.74,0012.11
2021-09-02 11:16:00,,0824.9,5.00,0.00,29.6,27.5,00.0,38.9,31.2,31.6,0001.9,0017.03,0012.75,0012.12
2021-09-02 11:17:00,,0824.9,4.99,0.00,29.6,27.8,00.0,38.9,31.3,31.6,0002.1,0017.13,0012.77,0012.14
2021-09-02 11:18:00,,0824.9,5.00,0.00,29.6,28.0,00.0,38.9,31.4,31.6,0002.2,0017.18,0012.80,0012.16
2021-09-02 11:19:00,,0824.9,5.01,0.00,29.7,28.2,00.0,38.8,31.4,31.5,0002.0,0017.31,0012.84,0012.16
2021-09-02 11:20:00,,0824.9,5.00,0.00,29.7,28.4,00.0,38.8,31.4,31.5,0001.9,0017.69,0012.89,0012.18
2021-09-02 11:21:00,,0825.0,4.98,0.00,29.7,28.5,00.0,38.8,31.5,31.5,0001.9,0017.27,0012.88,0012.18
2021-09-02 11:22:00,,0825.0,5.01,0.00,29.7,28.6,00.0,38.8,31.5,31.4,0001.7,0017.17,0012.93,0012.20
2021-09-02 11:23:00,,0825.0,5.01,0.00,29.8,28.7,00.0,38.8,31.5,31.4,0001.6,0017.19,0013.05,0012.29
2021-09-02 11:24:00,,0825.0,5.00,0.00,29.8,28.8,00.0,38.9,31.6,31.3,0001.6,0017.02,0013.07,0012.34
2021-09-02 11:25:00,,0825.1,5.00,0.00,29.8,28.9,00.0,38.9,31.6,31.3,0001.4,0017.16,0013.15,0012.38
2021-09-02 11:26:00,,0825.0,4.99,0.00,29.9,28.9,00.0,38.9,31.6,31.2,0001.6,0017.31,0013.23,0012.43
2021-09-02 11:27:00,,0825.0,5.02,0.00,29.9,29.0,00.0,38.9,31.7,31.2,0001.7,0017.36,0013.26,0012.49
2021-09-02 11:28:00,,0825.0,5.00,0.00,29.9,29.0,00.0,38.9,31.7,31.1,0001.5,0018.00,0013.33,0012.54
2021-09-02 11:29:00,,0824.9,4.99,0.00,29.9,29.1,00.0,38.9,31.7,31.1,0001.4,0018.20,0013.39,0012.59
2021-09-02 11:30:00,,0825.0,4.99,0.00,30.0,29.1,00.0,39.0,31.7,31.1,0001.4,0018.75,0013.44,0012.65
2021-09-02 11:31:00,,0825.0,5.01,0.00,30.0,29.1,00.0,39.0,31.7,31.0,0001.5,0018.69,0013.46,0012.70
2021-09-02 11:32:00,,0825.0,4.99,0.00,30.0,29.2,00.0,39.0,31.8,31.0,0001.6,0018.89,0013.56,0012.76
2021-09-02 11:33:00,,0825.0,5.00,0.00,30.0,29.2,00.0,39.0,31.9,30.9,0001.8,0018.99,0013.56,0012.80
2021-09-02 11:34:00,,0825.0,5.00,0.00,30.1,29.2,00.0,39.1,31.9,30.9,0001.9,0018.88,0013.53,0012.78
2021-09-02 11:35:00,,0825.0,4.99,0.00,30.1,28.3,00.0,39.1,31.7,30.9,0001.9,0018.84,0013.52,0012.79
2021-09-02 11:36:00,,0825.0,5.00,0.00,29.9,26.7,00.0,39.0,31.3,31.1,0002.1,0018.97,0013.55,0012.83
2021-09-02 11:37:00,,0825.0,5.00,0.00,29.8,26.4,00.0,39.0,31.2,31.3,0001.9,0018.99,0013.51,0012.80
2021-09-02 11:38:00,,0825.1,5.01,0.00,29.7,26.7,00.0,39.0,31.2,31.6,0001.9,0018.93,0013.50,0012.81
2021-09-02 11:39:00,,0825.1,5.00,0.00,29.7,27.2,00.0,38.9,31.2,31.7,0001.8,0018.41,0013.51,0012.83
2021-09-02 11:40:00,,0825.1,5.00,0.00,29.6,27.5,00.0,38.9,31.2,31.7,0001.9,0018.21,0013.52,0012.85
2021-09-02 11:41:00,,0825.1,5.01,0.00,29.7,27.8,00.0,38.9,31.3,31.6,0001.8,0017.57,0013.50,0012.85
2021-09-02 11:42:00,,0825.2,5.00,0.00,29.7,28.0,00.0,38.9,31.3,31.6,0001.7,0017.35,0013.47,0012.84
2021-09-02 11:43:00,,0825.1,5.00,0.00,29.7,28.2,00.0,38.9,31.4,31.6,0001.7,0017.22,0013.44,0012.84
2021-09-02 11:44:00,,0825.1,4.99,0.00,29.7,28.4,00.0,38.9,31.4,31.6,0001.7,0017.03,0013.44,0012.84
2021-09-02 11:45:00,,0825.1,5.00,0.00,29.7,28.5,00.0,38.9,31.5,31.6,0001.8,0017.31,0013.44,0012.85
2021-09-02 11:46:00,,0825.1,5.01,0.00,29.8,28.6,00.0,38.9,31.5,31.5,0001.8,0017.48,0013.49,0012.86
2021-09-02 11:47:00,,0825.1,4.99,0.00,29.8,28.7,00.0,38.9,31.6,31.5,0001.8,0017.32,0013.44,0012.84
2021-09-02 11:48:00,,0825.2,5.00,0.00,29.8,28.8,00.0,38.9,31.6,31.5,0001.9,0017.25,0013.47,0012.86
2021-09-02 11:49:00,,0825.1,5.01,0.00,29.8,28.8,00.0,38.9,31.6,31.6,0002.0,0017.28,0013.47,0012.86
2021-09-02 11:50:00,,0825.2,4.99,0.00,29.9,28.9,00.0,38.9,31.6,31.6,0002.1,0017.41,0013.50,0012.87
2021-09-02 11:51:00,,0825.1,5.00,0.00,29.9,28.9,00.0,38.9,31.7,31.5,0002.2,0017.51,0013.53,0012.88
2021-09-02 11:52:00,,0825.1,5.01,0.00,29.9,29.0,00.0,38.9,31.7,31.5,0002.2,0017.66,0013.58,0012.90
2021-09-02 11:53:00,,0825.2,4.98,0.00,29.9,29.0,00.0,38.9,31.7,31.4,0002.2,0017.74,0013.60,0012.88
2021-09-02 11:54:00,,0825.1,5.00,0.00,30.0,29.1,00.0,39.0,31.7,31.4,0002.0,0017.71,0013.58,0012.87
2021-09-02 11:55:00,,0825.2,5.00,0.00,30.0,29.1,00.0,39.0,31.7,31.3,0001.8,0017.87,0013.61,0012.87
2021-09-02 11:56:00,,0825.2,5.01,0.00,30.0,29.1,00.0,39.0,31.8,31.3,0001.8,0017.66,0013.62,0012.88
2021-09-02 11:57:00,,0825.2,5.00,0.00,30.0,29.2,00.0,39.0,31.8,31.3,0001.7,0017.50,0013.58,0012.87
2021-09-02 11:58:00,,0825.2,4.99,0.00,30.0,29.2,00.0,39.0,31.9,31.3,0001.5,0018.03,0013.59,0012.87
2021-09-02 11:59:00,,0825.3,5.01,0.00,30.1,29.0,00.0,39.1,31.8,31.2,0001.4,0018.29,0013.58,0012.85
